Flag Weather past 2 weeks in Leuven, Belgium

Now
45 °F

Fog.


Feels Like: 42 °F
Forecast: 37 / 46 °F
Wind: 5 mph from East

Location: Brussels National Airport

Current Time: Nov 28, 2014 at 8:20:50 AM

Latest Report: Nov 28, 2014 at 7:50 AM


Visibility: 3 mi

Pressure: 29.68 "Hg

Humidity: 93%

Dew point: 43 °F

Location of LeuvenLocation

Historic Weather in Leuven — Graph

°F

Leuven temperature yesterday

Maximum temperature yesterday: 50 °F (at 11:20 AM)
Minimum temperature yesterday: 48 °F (at 12:20 AM)
Average temperature yesterday: 49 °F

Past Weeks' High & Low Weather Summary

 TemperatureHumidityPressure
High59 °F (Nov 22, 2:50 PM)100% (Nov 21, 4:20 AM)30.33 "Hg (Nov 21, 4:20 AM)
Low30 °F (Nov 25, 7:20 AM)62% (Nov 24, 1:50 PM)29.50 "Hg (Nov 16, 2:20 PM)
Average46 °F87%29.91 "Hg
* Reported Nov 13 6:20 AM — Nov 28 6:50 AM, Leuven, Weather by CustomWeather, © 2014

Note: Actual official high and low records may vary slightly from our data, if they occured in-between our weather recording intervals... More about our weather records

Advertising

Leuven weather history for previous 24 hours

 ConditionsComfort  
Time TempWeatherWind HumidityBarometerVisibility
6:50 AM
Nov 28
45 °FClear.3 mph87%29.68 "Hg4 mi
6:20 AM43 °FClear.2 mph93%29.68 "Hg4 mi
5:50 AM45 °FPassing clouds.3 mph87%29.65 "Hg5 mi
5:20 AM45 °FPassing clouds.6 mph93%29.65 "Hg5 mi
4:50 AM45 °FPassing clouds.5 mph93%29.65 "Hg5 mi
4:20 AM45 °FPassing clouds.5 mph93%29.68 "Hg6 mi
3:50 AM46 °FClear.7 mph87%29.68 "Hg6 mi
3:20 AM46 °FPassing clouds.6 mph87%29.65 "Hg6 mi
2:50 AM46 °FPassing clouds.8 mph93%29.68 "HgN/A
2:20 AM48 °FPassing clouds.5 mph87%29.68 "HgN/A
1:50 AM48 °FPartly cloudy.5 mph87%29.65 "HgN/A
1:20 AM48 °FPartly cloudy.9 mph87%29.68 "HgN/A
12:50 AM48 °FPassing clouds.6 mph87%29.68 "HgN/A
12:20 AM48 °FPassing clouds.7 mph87%29.68 "HgN/A
11:50 PM
Nov 27
48 °FPassing clouds.7 mph87%29.68 "HgN/A
11:20 PM48 °FPartly cloudy.6 mph87%29.68 "HgN/A
10:50 PM48 °FPassing clouds.7 mph94%29.68 "HgN/A
10:20 PM48 °FPassing clouds.7 mph94%29.68 "HgN/A
9:50 PM48 °FPassing clouds.6 mph87%29.68 "Hg6 mi
9:20 PM48 °FPassing clouds.7 mph94%29.68 "Hg6 mi
8:50 PM48 °FLight rain. Partly cloudy.5 mph94%29.68 "Hg4 mi
8:20 PM48 °FPartly cloudy.5 mph94%29.68 "Hg4 mi
7:50 PM48 °FPartly cloudy.5 mph94%29.68 "Hg4 mi
7:20 PM48 °FPartly cloudy.5 mph94%29.68 "Hg4 mi
6:50 PM48 °FPassing clouds.5 mph94%29.68 "Hg4 mi
6:20 PM48 °FPassing clouds.6 mph94%29.68 "HgN/A
5:50 PM48 °FPartly cloudy.5 mph94%29.68 "Hg4 mi
5:20 PM48 °FPartly cloudy.6 mph94%29.68 "Hg4 mi
4:50 PM48 °FPassing clouds.6 mph94%29.68 "Hg4 mi
4:20 PM48 °FDrizzle. Fog.7 mph94%29.68 "Hg3 mi
3:50 PM48 °FFog.8 mph94%29.68 "Hg3 mi
3:20 PM50 °FBroken clouds.6 mph88%29.68 "HgN/A
2:50 PM50 °FLight rain. Broken clouds.6 mph88%29.68 "HgN/A
2:20 PM50 °FLight rain. Partly sunny.7 mph88%29.68 "HgN/A
1:50 PM50 °FLight rain. Partly sunny.5 mph88%29.68 "HgN/A
12:50 PM50 °FPassing clouds.2 mph88%29.71 "HgN/A
12:20 PM50 °FPassing clouds.5 mph88%29.71 "HgN/A
11:50 AM50 °FPassing clouds.3 mph88%29.71 "HgN/A
11:20 AM50 °FPassing clouds.5 mph88%29.74 "HgN/A
10:50 AM48 °FPassing clouds.5 mph87%29.74 "HgN/A
10:20 AM48 °FPassing clouds.6 mph87%29.74 "HgN/A
9:50 AM48 °FPassing clouds.7 mph87%29.74 "Hg5 mi
9:20 AM48 °FPassing clouds.6 mph87%29.74 "Hg5 mi
8:50 AM48 °FPassing clouds.6 mph87%29.74 "Hg4 mi
8:20 AM48 °FPassing clouds.3 mph87%29.74 "Hg4 mi
Weather by CustomWeather, © 2014

See weather overviewHow to use our weather pages